TimeMDT,TemperatureF,Dew PointF,Humidity,Sea Level PressureIn,VisibilityMPH,Wind Direction,Wind SpeedMPH,Gust SpeedMPH,PrecipitationIn,Events,Conditions,WindDirDegrees,DateUTC
12:10 AM,33.8,30.2,87,30.41,2.5,East,10.4,-,0.00,Snow,Light Snow,100,2012-10-04 06:10:00
12:19 AM,33.8,30.2,87,30.40,4.0,ESE,11.5,-,0.00,Snow,Light Snow,110,2012-10-04 06:19:00
12:53 AM,34.0,30.0,85,30.48,10.0,East,10.4,-,0.00,,Overcast,100,2012-10-04 06:53:00
1:53 AM,34.0,28.9,82,30.45,10.0,ESE,11.5,-,N/A,,Overcast,110,2012-10-04 07:53:00
2:14 AM,33.8,28.4,81,30.38,10.0,ESE,11.5,-,N/A,,Overcast,110,2012-10-04 08:14:00
2:45 AM,33.8,28.4,81,30.37,10.0,ESE,9.2,-,N/A,,Overcast,110,2012-10-04 08:45:00
2:53 AM,34.0,28.9,82,30.44,10.0,ESE,9.2,-,N/A,,Overcast,110,2012-10-04 08:53:00
3:53 AM,34.0,28.9,82,30.41,10.0,East,8.1,-,N/A,,Overcast,90,2012-10-04 09:53:00
4:53 AM,34.0,30.0,85,30.41,10.0,East,5.8,-,N/A,,Overcast,90,2012-10-04 10:53:00
5:13 AM,33.8,30.2,87,30.34,10.0,East,4.6,-,N/A,,Overcast,100,2012-10-04 11:13:00
5:53 AM,34.0,30.0,85,30.40,10.0,East,8.1,-,N/A,,Overcast,90,2012-10-04 11:53:00
6:10 AM,33.8,30.2,87,30.33,10.0,East,5.8,-,N/A,,Overcast,80,2012-10-04 12:10:00
6:37 AM,33.8,30.2,87,30.32,10.0,East,9.2,-,N/A,,Overcast,80,2012-10-04 12:37:00
6:53 AM,34.0,30.9,89,30.40,10.0,East,6.9,-,N/A,,Overcast,80,2012-10-04 12:53:00
7:01 AM,33.8,30.2,87,30.33,10.0,East,8.1,-,N/A,,Overcast,80,2012-10-04 13:01:00
7:48 AM,33.8,30.2,87,30.32,10.0,ENE,10.4,-,N/A,,Overcast,70,2012-10-04 13:48:00
7:53 AM,33.1,30.0,89,30.41,10.0,ENE,9.2,-,N/A,,Overcast,70,2012-10-04 13:53:00
8:46 AM,33.8,30.2,87,30.32,10.0,East,9.2,-,N/A,,Overcast,80,2012-10-04 14:46:00
8:53 AM,34.0,30.0,85,30.40,10.0,East,9.2,-,N/A,,Overcast,90,2012-10-04 14:53:00
9:04 AM,33.8,30.2,87,30.32,10.0,East,9.2,-,N/A,,Overcast,90,2012-10-04 15:04:00
9:18 AM,33.8,30.2,87,30.32,10.0,East,9.2,-,N/A,,Overcast,90,2012-10-04 15:18:00
9:53 AM,34.0,30.0,85,30.40,10.0,East,10.4,-,N/A,,Overcast,80,2012-10-04 15:53:00
10:35 AM,35.6,30.2,81,30.32,10.0,ENE,11.5,-,N/A,,Overcast,70,2012-10-04 16:35:00
10:53 AM,35.1,30.9,85,30.40,10.0,East,12.7,-,N/A,,Overcast,80,2012-10-04 16:53:00
11:08 AM,35.6,30.2,81,30.31,10.0,East,12.7,-,N/A,,Overcast,80,2012-10-04 17:08:00
11:33 AM,35.6,30.2,81,30.30,10.0,East,15.0,-,N/A,,Overcast,80,2012-10-04 17:33:00
11:43 AM,35.6,30.2,81,30.30,10.0,ENE,13.8,-,N/A,,Overcast,70,2012-10-04 17:43:00
11:53 AM,37.0,30.9,79,30.37,10.0,ENE,16.1,-,N/A,,Overcast,70,2012-10-04 17:53:00
12:01 PM,37.4,30.2,75,30.30,10.0,East,15.0,-,N/A,,Overcast,80,2012-10-04 18:01:00
12:53 PM,37.9,32.0,79,30.35,10.0,East,13.8,-,N/A,,Overcast,80,2012-10-04 18:53:00
1:25 PM,39.2,30.2,70,30.28,10.0,East,16.1,-,N/A,,Overcast,80,2012-10-04 19:25:00
1:32 PM,39.2,30.2,70,30.28,10.0,East,13.8,-,N/A,,Overcast,80,2012-10-04 19:32:00
1:39 PM,39.2,30.2,70,30.28,10.0,ENE,15.0,-,N/A,,Overcast,70,2012-10-04 19:39:00
1:53 PM,39.9,30.0,68,30.34,10.0,East,16.1,-,N/A,,Overcast,90,2012-10-04 19:53:00
2:53 PM,39.9,28.9,65,30.33,10.0,East,10.4,-,N/A,,Overcast,80,2012-10-04 20:53:00
3:17 PM,41.0,28.4,61,30.28,10.0,ESE,9.2,-,N/A,,Overcast,120,2012-10-04 21:17:00
3:42 PM,41.0,28.4,61,30.27,10.0,East,11.5,-,N/A,,Overcast,90,2012-10-04 21:42:00
3:53 PM,41.0,28.0,60,30.33,10.0,East,9.2,-,N/A,,Overcast,90,2012-10-04 21:53:00
4:53 PM,41.0,28.0,60,30.33,10.0,ESE,9.2,-,N/A,,Mostly Cloudy,110,2012-10-04 22:53:00
5:24 PM,42.8,28.4,57,30.28,10.0,ESE,11.5,-,N/A,,Overcast,110,2012-10-04 23:24:00
5:53 PM,39.9,28.0,63,30.34,10.0,East,8.1,-,N/A,,Scattered Clouds,100,2012-10-04 23:53:00
6:53 PM,37.0,28.0,70,30.35,10.0,East,6.9,-,N/A,,Clear,100,2012-10-05 00:53:00
7:53 PM,35.1,28.9,78,30.38,10.0,East,9.2,-,N/A,,Overcast,90,2012-10-05 01:53:00
8:53 PM,35.1,30.9,85,30.38,10.0,East,15.0,-,N/A,,Overcast,100,2012-10-05 02:53:00
9:03 PM,35.6,30.2,81,30.30,10.0,ESE,13.8,-,N/A,,Overcast,110,2012-10-05 03:03:00
9:53 PM,35.1,30.9,85,30.38,10.0,East,13.8,-,N/A,,Overcast,90,2012-10-05 03:53:00
10:15 PM,33.8,30.2,87,30.31,10.0,East,12.7,-,N/A,,Overcast,100,2012-10-05 04:15:00
10:51 PM,33.8,30.2,87,30.31,10.0,East,13.8,-,N/A,,Overcast,90,2012-10-05 04:51:00
10:53 PM,34.0,30.9,89,30.39,10.0,East,13.8,-,N/A,,Overcast,90,2012-10-05 04:53:00
11:22 PM,33.8,30.2,87,30.30,7.0,East,13.8,-,0.00,Snow,Light Snow,100,2012-10-05 05:22:00
11:31 PM,33.8,30.2,87,30.30,9.0,East,15.0,-,0.00,,Overcast,100,2012-10-05 05:31:00
11:42 PM,33.8,30.2,87,30.30,10.0,East,15.0,-,0.00,,Overcast,100,2012-10-05 05:42:00
11:53 PM,34.0,30.9,89,30.37,10.0,East,12.7,-,0.00,,Overcast,100,2012-10-05 05:53:00